This is the latest recevied weather packets stored in our database for station/object YB3RDW-13. If no packets are shown the sender has not sent any weather packets the latest 1 day(s).
| Time | Temp. | Humidity | Pressure | Rain* | Wind** | Luminosity | Snow |
|---|---|---|---|---|---|---|---|
| 1778038317 | 32.22° C | 63% | 1012 hPa | 0 mm | - | 427 W/m² | - |
| 1778038017 | 32.22° C | 63% | 1012 hPa | 0 mm | - | 423 W/m² | - |
| 1778037718 | 32.78° C | 63% | 1012 hPa | 0 mm | - | 368 W/m² | - |
| 1778037417 | 32.22° C | 63% | 1012 hPa | 0 mm | - | 425 W/m² | - |
| 1778037118 | 32.78° C | 62% | 1012 hPa | 0 mm | - | 413 W/m² | - |
| 1778036819 | 32.78° C | 63% | 1012 hPa | 0 mm | - | 508 W/m² | - |
| 1778036517 | 32.22° C | 63% | 1012 hPa | 0 mm | - | 642 W/m² | - |
| 1778036217 | 32.22° C | 66% | 1013 hPa | 0 mm | - | 601 W/m² | - |
| 1778035917 | 31.67° C | 67% | 1013 hPa | 0 mm | - | 267 W/m² | - |
| 1778035617 | 31.67° C | 70% | 1013 hPa | 0 mm | - | 631 W/m² | - |
| 1778035317 | 32.22° C | 68% | 1013 hPa | 0 mm | - | 470 W/m² | - |
| 1778035017 | 31.67° C | 69% | 1013 hPa | 0 mm | - | 613 W/m² | - |
| 1778034717 | 32.22° C | 69% | 1013 hPa | 0 mm | - | 579 W/m² | - |
| 1778034117 | 31.67° C | 69% | 1013 hPa | 0 mm | - | 490 W/m² | - |
| 1778033219 | 31.11° C | 72% | 1013 hPa | 0 mm | - | 446 W/m² | - |
| 1778032918 | 31.67° C | 71% | 1013 hPa | 0 mm | - | 453 W/m² | - |
| 1778032617 | 31.67° C | 73% | 1013 hPa | 0 mm | - | 419 W/m² | - |
| 1778031417 | 30.56° C | 76% | 1013 hPa | 0 mm | - | 191 W/m² | - |
| 1778031117 | 31.11° C | 76% | 1013 hPa | 0 mm | - | 421 W/m² | - |
| 1778030817 | 30.56° C | 79% | 1013 hPa | 0 mm | - | 384 W/m² | - |
| 1778030218 | 29.44° C | 81% | 1013 hPa | 0 mm | - | 272 W/m² | - |
| 1778029318 | 29.44° C | 83% | 1013 hPa | 0 mm | - | 285 W/m² | - |
| 1778029018 | 29.44° C | 84% | 1013 hPa | 0 mm | - | 279 W/m² | - |
| 1778028417 | 28.89° C | 83% | 1013 hPa | 0 mm | - | 256 W/m² | - |
| 1778028117 | 28.89° C | 84% | 1013 hPa | 0 mm | - | 246 W/m² | - |
* Rain latest hour (hover to see other rain measurements)
** Current wind speed in m/s (hover to see current wind gust speed)